SCP
0 0 0 0 0 0 0 0 0 0 0 0 0 0 0 0 0 0 0 0 0 0 0 0 0 0 0 0 0 0 0 0
0 0 0 0 0 0 0 0 0 0 0 0 0 0 0 0 0 0 0 0 0 0 0 0 0 0 0 0 0 -0 -0 -0
0 0 0 0 0 0 0 0 0 0 0 0 0 0 0 0 0 0 0 0 0 0 0 0 0 0 0 0 0 0 0 0
0 0 0 0 0 0 0 0 0 0 0 0 0 0 0 0 0 0 0 0 0 0 0 0 0 0 0 0 0 0 0 0
0 0 0 0 0 0 0 0 0 0 0 0 0 0 0 0 0 0 0 0 0 0 0 0 0 0 0 0 0 0 0 0
0 0 0 -0 0 0 0 0 0 0 0 0 0 0 0 0 0 0 0 0 0 0 0 0 0 0 0 0 0 0 0 0
0 0 0 0 0 0 0 0 0 0 0 0 0 0 0 0 0 0 0 0 0 0 0 0 0 0 0 0 0 0 0 0
0 0 0 0 0 0 -0 0 0 0 0 0 0 0 0 0 0 0 0 0 0 0 0 0 0 0 0 0 0 0 0 0
0 0 0 0 0 0 -0 0 0 0 0 0 0 0 0 0 0 0 0 0 0 0 0 0 0 0 0 0 0 0 0 0
-0 0 0 0 0 -0 -0 -0 0 0 0 -0 0 0 0 0 0 0 0 0 0 0 0 0 0 0 0 0 0 0 0 0
0 0 0 0 0 -0 -0 0 0 -0 0 0 0 0 0 0 0 0 0 0 0 0 0 0 0 0 0 0 0 0 0 0
0 0 0 0 -0 -0 -0 0 0 0 -0 0 0 0 0 0 0 0 0 0 0 0 0 0 0 0 0 0 0 0 0 0
0 0 0 0 -0 -0 0 0 0 -0 0 -0 0 0 0 0 0 0 0 0 0 0 0 0 0 0 0 0 0 0 0 0
0 0 0 -0 -0 -0 -0 -0 -0 -0 0 0 0 0 0 0 0 0 -0 -0 0 0 0 0 0 -0 -0 -0 -0 0 0 0
0 0 0 -0 -0 -0 -0 -0 -0 0 0 0 0 0 0 0 0 0 0 -0 -0 0 -0 -0 -0 -0 -0 -0 -0 0 -0 0
0 0 0 0 -0 -0 -0 0 -0 0 0 0 0 0 0 0 0 0 -0 -0 -0 -0 0 -0 -0 -0 -0 0 -0 0 0 0
0 0 0 0 0 -0 -0 0 0 0 0 0 0 0 0 -0 0 -0 -0 0 0 -0 0 0 -0 -0 0 0 0 0 0 0
0 0 0 0 0 -0 -0 0 0 0 0 0 0 0 0 -0 -0 0 0 0 0 0 0 0 -0 0 0 0 0 0 0 0
0 0 0 0 0 0 0 0 0 0 0 0 0 0 0 0 0 -0 -0 -0 0 0 0 0 0 0 0 0 0 0 0 0
0 0 0 0 0 0 0 0 0 0 0 0 0 0 0 0 0 -0 0 0 0 0 0 0 0 0 0 0 0 0 0 0
Wind_Speed_500mb
5 4 6 12 9 12 18 25 29 28 31 31 32 29 34 36 32 26 18 19 19 17 14 18 16 11 7 4 7 9 10 8
3 6 9 8 9 13 19 22 29 28 31 32 30 34 34 39 38 32 21 17 20 20 17 15 13 11 9 6 3 6 9 11
5 7 8 4 9 13 16 19 27 26 25 26 27 27 34 40 38 34 34 30 27 27 20 16 14 10 7 8 8 9 10 14
5 7 5 3 11 16 15 17 23 22 25 27 25 27 29 35 34 33 26 29 27 29 32 29 23 19 16 10 7 8 15 19
7 7 2 6 10 16 16 16 17 21 25 26 25 28 34 30 29 26 22 28 31 35 38 40 40 35 31 27 22 19 23 23
7 5 3 7 11 12 13 10 13 18 19 24 26 31 33 30 31 26 25 26 30 36 34 33 34 33 31 29 26 26 24 21
4 2 3 9 10 10 7 7 9 14 13 16 20 25 23 24 25 30 28 26 26 23 27 27 29 28 26 24 23 23 22 22
4 4 5 8 6 10 6 9 11 13 14 16 17 20 18 18 19 13 16 19 21 18 19 21 24 28 30 26 22 18 16 15
2 3 5 7 7 4 1 8 8 10 11 11 14 22 25 24 12 9 9 11 12 11 12 12 12 14 14 16 20 18 18 16
7 9 6 6 5 5 1 6 5 7 5 5 12 20 26 29 25 10 11 9 9 8 5 8 7 6 8 9 13 13 17 16
8 7 9 8 5 7 6 5 5 4 3 6 14 16 24 25 22 23 16 13 15 13 10 11 8 9 9 8 5 6 15 7
10 9 9 6 5 11 11 8 2 0 5 5 8 14 24 30 29 16 17 22 21 8 11 12 11 10 11 12 11 10 7 5
11 12 13 9 8 11 12 7 4 3 2 8 11 14 21 31 35 14 15 16 20 17 15 7 4 6 6 4 7 7 8 8
17 18 17 13 13 11 14 9 10 7 4 13 18 13 24 32 28 15 10 13 14 15 12 12 5 7 11 9 4 3 6 9
20 19 18 18 17 15 17 12 11 8 11 16 17 19 29 27 19 13 7 7 8 11 10 4 4 5 5 5 8 10 16 16
20 19 21 20 21 19 19 17 14 12 17 19 21 22 29 22 18 13 8 9 8 6 12 12 9 9 11 14 16 19 22 21
21 26 27 27 24 23 19 21 19 16 12 16 19 21 29 21 14 12 9 12 12 11 10 13 9 9 11 15 16 13 14 16
29 27 30 30 30 26 24 25 24 20 17 18 18 26 31 25 19 19 11 13 18 10 11 9 7 8 12 15 16 14 12 12
28 24 23 35 30 27 26 24 26 23 23 22 19 24 26 23 17 12 11 12 22 12 10 12 11 13 13 15 17 16 13 13
31 30 29 29 34 30 37 32 28 26 28 26 23 22 24 21 16 20 22 18 18 16 14 16 20 18 15 14 16 18 15 14
Wind_Direction_500mb
29 354 359 5 22 3 7 12 13 19 12 12 12 14 22 27 22 25 30 36 31 28 29 19 30 87 98 88 64 58 37 34
314 353 1 15 19 19 22 16 18 19 12 14 31 33 32 37 33 35 40 35 27 23 18 30 55 77 81 82 81 41 34 31
317 353 356 28 16 10 10 7 13 19 13 27 32 43 43 40 37 51 49 46 45 38 41 47 65 74 90 76 88 78 63 61
322 337 332 0 5 359 2 7 17 23 37 51 56 39 28 28 30 48 43 39 52 54 58 63 70 74 75 85 92 100 91 88
303 317 260 349 3 357 3 12 46 51 52 57 40 28 27 28 34 45 54 60 65 70 69 70 70 71 76 79 82 100 105 99
316 294 236 339 348 350 359 36 72 53 53 44 40 37 37 42 41 52 62 74 77 83 67 67 65 66 69 75 83 93 96 87
312 219 330 355 356 357 17 79 67 54 61 59 31 39 69 49 49 58 63 68 75 72 67 64 63 60 65 70 74 78 77 73
113 79 2 1 356 9 85 106 82 75 81 52 39 34 35 28 35 38 50 56 56 64 70 73 68 59 59 62 62 66 68 58
232 274 330 348 357 29 145 122 91 99 78 48 33 18 27 24 24 17 30 35 49 58 64 64 62 61 45 25 34 48 47 34
277 269 292 314 320 166 264 159 80 101 100 57 36 23 16 17 19 345 339 345 348 340 21 17 15 5 15 358 14 30 9 3
261 259 282 292 227 184 184 142 78 90 70 5 355 11 10 11 8 13 1 326 303 300 298 307 309 300 304 321 309 351 345 57
264 246 288 286 190 179 174 151 36 112 295 346 35 11 351 359 357 335 344 3 8 350 311 301 306 298 274 265 266 285 309 18
254 262 277 255 204 187 179 195 196 311 274 337 344 329 349 359 4 345 316 327 5 26 25 7 25 47 6 289 238 264 272 292
264 271 269 239 217 209 194 217 232 274 284 332 340 333 343 352 351 341 329 308 317 8 23 35 80 53 40 54 34 347 278 290
263 262 252 239 229 229 217 236 243 253 298 322 333 324 348 342 331 326 324 319 316 314 334 334 9 283 312 329 314 305 301 291
255 260 250 239 238 234 228 236 244 255 292 313 317 328 345 324 307 307 310 326 311 296 328 300 275 295 304 321 307 282 285 278
260 261 243 234 241 234 227 238 238 278 291 312 320 329 333 302 308 300 315 329 316 284 304 328 279 286 304 322 328 316 292 269
257 260 246 241 243 246 227 239 248 275 284 307 312 330 334 314 295 303 295 317 325 279 275 316 315 324 330 340 344 324 311 293
260 253 258 242 249 225 231 247 259 270 278 293 299 328 346 327 285 274 285 299 334 287 271 286 294 290 307 331 348 340 317 311
261 258 259 251 242 247 239 239 253 258 273 289 288 323 317 340 301 274 282 295 308 312 282 287 278 284 300 315 339 346 328 322
Wind_Speed_850mb
5 4 6 12 9 12 18 25 29 28 31 31 32 29 34 36 32 26 18 19 19 17 14 18 16 11 7 4 7 9 10 8
3 6 9 8 9 13 19 22 29 28 31 32 30 34 34 39 38 32 21 17 20 20 17 15 13 11 9 6 3 6 9 11
5 7 8 4 9 13 16 19 27 26 25 26 27 27 34 40 38 34 34 30 27 27 20 16 14 10 7 8 8 9 10 14
5 7 5 3 11 16 15 17 23 22 25 27 25 27 29 35 34 33 26 29 27 29 32 29 23 19 16 10 7 8 15 19
7 7 2 6 10 16 16 16 17 21 25 26 25 28 34 30 29 26 22 28 31 35 38 40 40 35 31 27 22 19 23 23
7 5 3 7 11 12 13 10 13 18 19 24 26 31 33 30 31 26 25 26 30 36 34 33 34 33 31 29 26 26 24 21
4 2 3 9 10 10 7 7 9 14 13 16 20 25 23 24 25 30 28 26 26 23 27 27 29 28 26 24 23 23 22 22
4 4 5 8 6 10 6 9 11 13 14 16 17 20 18 18 19 13 16 19 21 18 19 21 24 28 30 26 22 18 16 15
2 3 5 7 7 4 1 8 8 10 11 11 14 22 25 24 12 9 9 11 12 11 12 12 12 14 14 16 20 18 18 16
7 9 6 6 5 5 1 6 5 7 5 5 12 20 26 29 25 10 11 9 9 8 5 8 7 6 8 9 13 13 17 16
8 7 9 8 5 7 6 5 5 4 3 6 14 16 24 25 22 23 16 13 15 13 10 11 8 9 9 8 5 6 15 7
10 9 9 6 5 11 11 8 2 0 5 5 8 14 24 30 29 16 17 22 21 8 11 12 11 10 11 12 11 10 7 5
11 12 13 9 8 11 12 7 4 3 2 8 11 14 21 31 35 14 15 16 20 17 15 7 4 6 6 4 7 7 8 8
17 18 17 13 13 11 14 9 10 7 4 13 18 13 24 32 28 15 10 13 14 15 12 12 5 7 11 9 4 3 6 9
20 19 18 18 17 15 17 12 11 8 11 16 17 19 29 27 19 13 7 7 8 11 10 4 4 5 5 5 8 10 16 16
20 19 21 20 21 19 19 17 14 12 17 19 21 22 29 22 18 13 8 9 8 6 12 12 9 9 11 14 16 19 22 21
21 26 27 27 24 23 19 21 19 16 12 16 19 21 29 21 14 12 9 12 12 11 10 13 9 9 11 15 16 13 14 16
29 27 30 30 30 26 24 25 24 20 17 18 18 26 31 25 19 19 11 13 18 10 11 9 7 8 12 15 16 14 12 12
28 24 23 35 30 27 26 24 26 23 23 22 19 24 26 23 17 12 11 12 22 12 10 12 11 13 13 15 17 16 13 13
31 30 29 29 34 30 37 32 28 26 28 26 23 22 24 21 16 20 22 18 18 16 14 16 20 18 15 14 16 18 15 14
Wind_Direction_850mb
29 354 359 5 22 3 7 12 13 19 12 12 12 14 22 27 22 25 30 36 31 28 29 19 30 87 98 88 64 58 37 34
314 353 1 15 19 19 22 16 18 19 12 14 31 33 32 37 33 35 40 35 27 23 18 30 55 77 81 82 81 41 34 31
317 353 356 28 16 10 10 7 13 19 13 27 32 43 43 40 37 51 49 46 45 38 41 47 65 74 90 76 88 78 63 61
322 337 332 0 5 359 2 7 17 23 37 51 56 39 28 28 30 48 43 39 52 54 58 63 70 74 75 85 92 100 91 88
303 317 260 349 3 357 3 12 46 51 52 57 40 28 27 28 34 45 54 60 65 70 69 70 70 71 76 79 82 100 105 99
316 294 236 339 348 350 359 36 72 53 53 44 40 37 37 42 41 52 62 74 77 83 67 67 65 66 69 75 83 93 96 87
312 219 330 355 356 357 17 79 67 54 61 59 31 39 69 49 49 58 63 68 75 72 67 64 63 60 65 70 74 78 77 73
113 79 2 1 356 9 85 106 82 75 81 52 39 34 35 28 35 38 50 56 56 64 70 73 68 59 59 62 62 66 68 58
232 274 330 348 357 29 145 122 91 99 78 48 33 18 27 24 24 17 30 35 49 58 64 64 62 61 45 25 34 48 47 34
277 269 292 314 320 166 264 159 80 101 100 57 36 23 16 17 19 345 339 345 348 340 21 17 15 5 15 358 14 30 9 3
261 259 282 292 227 184 184 142 78 90 70 5 355 11 10 11 8 13 1 326 303 300 298 307 309 300 304 321 309 351 345 57
264 246 288 286 190 179 174 151 36 112 295 346 35 11 351 359 357 335 344 3 8 350 311 301 306 298 274 265 266 285 309 18
254 262 277 255 204 187 179 195 196 311 274 337 344 329 349 359 4 345 316 327 5 26 25 7 25 47 6 289 238 264 272 292
264 271 269 239 217 209 194 217 232 274 284 332 340 333 343 352 351 341 329 308 317 8 23 35 80 53 40 54 34 347 278 290
263 262 252 239 229 229 217 236 243 253 298 322 333 324 348 342 331 326 324 319 316 314 334 334 9 283 312 329 314 305 301 291
255 260 250 239 238 234 228 236 244 255 292 313 317 328 345 324 307 307 310 326 311 296 328 300 275 295 304 321 307 282 285 278
260 261 243 234 241 234 227 238 238 278 291 312 320 329 333 302 308 300 315 329 316 284 304 328 279 286 304 322 328 316 292 269
257 260 246 241 243 246 227 239 248 275 284 307 312 330 334 314 295 303 295 317 325 279 275 316 315 324 330 340 344 324 311 293
260 253 258 242 249 225 231 247 259 270 278 293 299 328 346 327 285 274 285 299 334 287 271 286 294 290 307 331 348 340 317 311
261 258 259 251 242 247 239 239 253 258 273 289 288 323 317 340 301 274 282 295 308 312 282 287 278 284 300 315 339 346 328 322